owner,sensor,date,latitude,longitude,vertical_datum,sea_water_practical_salinity,qcFlag 
NERRS,ioos:station:NOAA.NERRS:gndpcwq:1,2013-10-01T00:00:00Z,30.3486,-88.4185,0.0,20.7,1111122 
NERRS,ioos:station:NOAA.NERRS:gndpcwq:1,2013-10-01T01:00:00Z,30.3486,-88.4185,0.0,20.8,1111122 
NERRS,ioos:station:NOAA.NERRS:gndpcwq:1,2013-10-01T02:00:00Z,30.3486,-88.4185,0.0,20.8,1111122 
NERRS,ioos:station:NOAA.NERRS:gndpcwq:1,2013-10-01T03:00:00Z,30.3486,-88.4185,0.0,20.9,1111122 
NERRS,ioos:station:NOAA.NERRS:gndpcwq:1,2013-10-01T04:00:00Z,30.3486,-88.4185,0.0,21.0,1111122 
NERRS,ioos:station:NOAA.NERRS:gndpcwq:1,2013-10-01T05:00:00Z,30.3486,-88.4185,0.0,21.0,1111122 
NERRS,ioos:station:NOAA.NERRS:gndpcwq:1,2013-10-01T06:00:00Z,30.3486,-88.4185,0.0,21.0,1111122 
NERRS,ioos:station:NOAA.NERRS:gndpcwq:1,2013-10-01T07:00:00Z,30.3486,-88.4185,0.0,20.9,1111122 
NERRS,ioos:station:NOAA.NERRS:gndpcwq:1,2013-10-01T08:00:00Z,30.3486,-88.4185,0.0,20.8,1111122 
NERRS,ioos:station:NOAA.NERRS:gndpcwq:1,2013-10-01T09:00:00Z,30.3486,-88.4185,0.0,20.8,1111122 
NERRS,ioos:station:NOAA.NERRS:gndpcwq:1,2013-10-01T10:00:00Z,30.3486,-88.4185,0.0,20.8,1111122 
NERRS,ioos:station:NOAA.NERRS:gndpcwq:1,2013-10-01T11:00:00Z,30.3486,-88.4185,0.0,20.8,1111122 
NERRS,ioos:station:NOAA.NERRS:gndpcwq:1,2013-10-01T12:00:00Z,30.3486,-88.4185,0.0,20.8,1111122 
NERRS,ioos:station:NOAA.NERRS:gndpcwq:1,2013-10-01T13:00:00Z,30.3486,-88.4185,0.0,20.7,1111122 
NERRS,ioos:station:NOAA.NERRS:gndpcwq:1,2013-10-01T14:00:00Z,30.3486,-88.4185,0.0,20.7,1111122 
NERRS,ioos:station:NOAA.NERRS:gndpcwq:1,2013-10-01T15:00:00Z,30.3486,-88.4185,0.0,20.7,1111122 
NERRS,ioos:station:NOAA.NERRS:gndpcwq:1,2013-10-01T16:00:00Z,30.3486,-88.4185,0.0,20.8,1111122 
NERRS,ioos:station:NOAA.NERRS:gndpcwq:1,2013-10-01T17:00:00Z,30.3486,-88.4185,0.0,20.7,1111122 
NERRS,ioos:station:NOAA.NERRS:gndpcwq:1,2013-10-01T18:00:00Z,30.3486,-88.4185,0.0,20.7,1111122 
NERRS,ioos:station:NOAA.NERRS:gndpcwq:1,2013-10-01T19:00:00Z,30.3486,-88.4185,0.0,20.6,1111122 
NERRS,ioos:station:NOAA.NERRS:gndpcwq:1,2013-10-01T20:00:00Z,30.3486,-88.4185,0.0,20.6,1111122 
NERRS,ioos:station:NOAA.NERRS:gndpcwq:1,2013-10-01T21:00:00Z,30.3486,-88.4185,0.0,20.5,1111122 
NERRS,ioos:station:NOAA.NERRS:gndpcwq:1,2013-10-01T22:00:00Z,30.3486,-88.4185,0.0,20.7,1111122 
NERRS,ioos:station:NOAA.NERRS:gndpcwq:1,2013-10-01T23:00:00Z,30.3486,-88.4185,0.0,21.0,1111122 
NERRS,ioos:station:NOAA.NERRS:gndpcwq:1,2013-10-02T00:00:00Z,30.3486,-88.4185,0.0,21.0,1111122 
NERRS,ioos:station:NOAA.NERRS:gndpcwq:1,2013-10-02T01:00:00Z,30.3486,-88.4185,0.0,20.9,1111122 
NERRS,ioos:station:NOAA.NERRS:gndpcwq:1,2013-10-02T02:00:00Z,30.3486,-88.4185,0.0,20.8,1111122 
NERRS,ioos:station:NOAA.NERRS:gndpcwq:1,2013-10-02T03:00:00Z,30.3486,-88.4185,0.0,20.8,1111122 
NERRS,ioos:station:NOAA.NERRS:gndpcwq:1,2013-10-02T04:00:00Z,30.3486,-88.4185,0.0,20.8,1111122 
NERRS,ioos:station:NOAA.NERRS:gndpcwq:1,2013-10-02T05:00:00Z,30.3486,-88.4185,0.0,20.7,1111122 
NERRS,ioos:station:NOAA.NERRS:gndpcwq:1,2013-10-02T06:00:00Z,30.3486,-88.4185,0.0,20.7,1111122 
NERRS,ioos:station:NOAA.NERRS:gndpcwq:1,2013-10-02T07:00:00Z,30.3486,-88.4185,0.0,20.7,1111122 
NERRS,ioos:station:NOAA.NERRS:gndpcwq:1,2013-10-02T08:00:00Z,30.3486,-88.4185,0.0,20.7,1111122 
NERRS,ioos:station:NOAA.NERRS:gndpcwq:1,2013-10-02T09:00:00Z,30.3486,-88.4185,0.0,20.7,1111122 
NERRS,ioos:station:NOAA.NERRS:gndpcwq:1,2013-10-02T10:00:00Z,30.3486,-88.4185,0.0,20.7,1111122 
NERRS,ioos:station:NOAA.NERRS:gndpcwq:1,2013-10-02T11:00:00Z,30.3486,-88.4185,0.0,20.8,1111122 
NERRS,ioos:station:NOAA.NERRS:gndpcwq:1,2013-10-02T12:00:00Z,30.3486,-88.4185,0.0,20.7,1111122 
NERRS,ioos:station:NOAA.NERRS:gndpcwq:1,2013-10-02T13:00:00Z,30.3486,-88.4185,0.0,20.6,1111122 
NERRS,ioos:station:NOAA.NERRS:gndpcwq:1,2013-10-02T14:00:00Z,30.3486,-88.4185,0.0,20.7,1111122 
NERRS,ioos:station:NOAA.NERRS:gndpcwq:1,2013-10-02T15:00:00Z,30.3486,-88.4185,0.0,20.7,1111122 
NERRS,ioos:station:NOAA.NERRS:gndpcwq:1,2013-10-02T16:00:00Z,30.3486,-88.4185,0.0,20.7,1111122 
NERRS,ioos:station:NOAA.NERRS:gndpcwq:1,2013-10-02T17:00:00Z,30.3486,-88.4185,0.0,20.7,1111122 
NERRS,ioos:station:NOAA.NERRS:gndpcwq:1,2013-10-02T18:00:00Z,30.3486,-88.4185,0.0,20.7,1111122 
NERRS,ioos:station:NOAA.NERRS:gndpcwq:1,2013-10-02T19:00:00Z,30.3486,-88.4185,0.0,20.7,1111122 
NERRS,ioos:station:NOAA.NERRS:gndpcwq:1,2013-10-02T20:00:00Z,30.3486,-88.4185,0.0,20.7,1111122 
NERRS,ioos:station:NOAA.NERRS:gndpcwq:1,2013-10-02T21:00:00Z,30.3486,-88.4185,0.0,20.6,1111122 
NERRS,ioos:station:NOAA.NERRS:gndpcwq:1,2013-10-02T22:00:00Z,30.3486,-88.4185,0.0,20.6,1111122 
NERRS,ioos:station:NOAA.NERRS:gndpcwq:1,2013-10-02T23:00:00Z,30.3486,-88.4185,0.0,20.5,1111122 
NERRS,ioos:station:NOAA.NERRS:gndpcwq:1,2013-10-03T00:00:00Z,30.3486,-88.4185,0.0,20.5,1111122 
NERRS,ioos:station:NOAA.NERRS:gndpcwq:1,2013-10-03T01:00:00Z,30.3486,-88.4185,0.0,20.6,1111122 
NERRS,ioos:station:NOAA.NERRS:gndpcwq:1,2013-10-03T02:00:00Z,30.3486,-88.4185,0.0,20.7,1111122 
NERRS,ioos:station:NOAA.NERRS:gndpcwq:1,2013-10-03T03:00:00Z,30.3486,-88.4185,0.0,20.7,1111122 
NERRS,ioos:station:NOAA.NERRS:gndpcwq:1,2013-10-03T04:00:00Z,30.3486,-88.4185,0.0,20.7,1111122 
NERRS,ioos:station:NOAA.NERRS:gndpcwq:1,2013-10-03T05:00:00Z,30.3486,-88.4185,0.0,20.7,1111122 
NERRS,ioos:station:NOAA.NERRS:gndpcwq:1,2013-10-03T06:00:00Z,30.3486,-88.4185,0.0,20.6,1111122 
NERRS,ioos:station:NOAA.NERRS:gndpcwq:1,2013-10-03T07:00:00Z,30.3486,-88.4185,0.0,20.5,1111122 
NERRS,ioos:station:NOAA.NERRS:gndpcwq:1,2013-10-03T08:00:00Z,30.3486,-88.4185,0.0,20.7,1111122 
NERRS,ioos:station:NOAA.NERRS:gndpcwq:1,2013-10-03T09:00:00Z,30.3486,-88.4185,0.0,20.5,1111122 
NERRS,ioos:station:NOAA.NERRS:gndpcwq:1,2013-10-03T10:00:00Z,30.3486,-88.4185,0.0,20.4,1111122 
NERRS,ioos:station:NOAA.NERRS:gndpcwq:1,2013-10-03T11:00:00Z,30.3486,-88.4185,0.0,20.5,1111122 
NERRS,ioos:station:NOAA.NERRS:gndpcwq:1,2013-10-03T12:00:00Z,30.3486,-88.4185,0.0,20.5,1111122 
NERRS,ioos:station:NOAA.NERRS:gndpcwq:1,2013-10-03T13:00:00Z,30.3486,-88.4185,0.0,20.6,1111122 
NERRS,ioos:station:NOAA.NERRS:gndpcwq:1,2013-10-03T14:00:00Z,30.3486,-88.4185,0.0,20.5,1111122 
NERRS,ioos:station:NOAA.NERRS:gndpcwq:1,2013-10-03T15:00:00Z,30.3486,-88.4185,0.0,20.5,1111122 
NERRS,ioos:station:NOAA.NERRS:gndpcwq:1,2013-10-03T16:00:00Z,30.3486,-88.4185,0.0,21.3,1111122 
NERRS,ioos:station:NOAA.NERRS:gndpcwq:1,2013-10-03T17:00:00Z,30.3486,-88.4185,0.0,21.2,1111122 
NERRS,ioos:station:NOAA.NERRS:gndpcwq:1,2013-10-03T18:00:00Z,30.3486,-88.4185,0.0,21.1,1111122 
NERRS,ioos:station:NOAA.NERRS:gndpcwq:1,2013-10-03T19:00:00Z,30.3486,-88.4185,0.0,21.1,1111122 
NERRS,ioos:station:NOAA.NERRS:gndpcwq:1,2013-10-03T20:00:00Z,30.3486,-88.4185,0.0,21.2,1111122 
NERRS,ioos:station:NOAA.NERRS:gndpcwq:1,2013-10-03T21:00:00Z,30.3486,-88.4185,0.0,21.1,1111122 
NERRS,ioos:station:NOAA.NERRS:gndpcwq:1,2013-10-03T22:00:00Z,30.3486,-88.4185,0.0,21.1,1111122 
NERRS,ioos:station:NOAA.NERRS:gndpcwq:1,2013-10-03T23:00:00Z,30.3486,-88.4185,0.0,20.7,1111122 
NERRS,ioos:station:NOAA.NERRS:gndpcwq:1,2013-10-04T00:00:00Z,30.3486,-88.4185,0.0,20.9,1111122 
NERRS,ioos:station:NOAA.NERRS:gndpcwq:1,2013-10-04T01:00:00Z,30.3486,-88.4185,0.0,20.7,1111122 
NERRS,ioos:station:NOAA.NERRS:gndpcwq:1,2013-10-04T02:00:00Z,30.3486,-88.4185,0.0,20.9,1111122 
NERRS,ioos:station:NOAA.NERRS:gndpcwq:1,2013-10-04T03:00:00Z,30.3486,-88.4185,0.0,20.8,1111122 
NERRS,ioos:station:NOAA.NERRS:gndpcwq:1,2013-10-04T04:00:00Z,30.3486,-88.4185,0.0,20.7,1111122 
NERRS,ioos:station:NOAA.NERRS:gndpcwq:1,2013-10-04T05:00:00Z,30.3486,-88.4185,0.0,20.6,1111122 
NERRS,ioos:station:NOAA.NERRS:gndpcwq:1,2013-10-04T06:00:00Z,30.3486,-88.4185,0.0,20.6,1111122 
NERRS,ioos:station:NOAA.NERRS:gndpcwq:1,2013-10-04T07:00:00Z,30.3486,-88.4185,0.0,20.5,1111122 
NERRS,ioos:station:NOAA.NERRS:gndpcwq:1,2013-10-04T08:00:00Z,30.3486,-88.4185,0.0,20.5,1111122 
NERRS,ioos:station:NOAA.NERRS:gndpcwq:1,2013-10-04T09:00:00Z,30.3486,-88.4185,0.0,20.5,1111122 
NERRS,ioos:station:NOAA.NERRS:gndpcwq:1,2013-10-04T10:00:00Z,30.3486,-88.4185,0.0,20.7,1111122 
NERRS,ioos:station:NOAA.NERRS:gndpcwq:1,2013-10-04T11:00:00Z,30.3486,-88.4185,0.0,20.7,1111122 
NERRS,ioos:station:NOAA.NERRS:gndpcwq:1,2013-10-04T12:00:00Z,30.3486,-88.4185,0.0,20.5,1111122 
NERRS,ioos:station:NOAA.NERRS:gndpcwq:1,2013-10-04T13:00:00Z,30.3486,-88.4185,0.0,20.5,1111122 
NERRS,ioos:station:NOAA.NERRS:gndpcwq:1,2013-10-04T14:00:00Z,30.3486,-88.4185,0.0,20.5,1111122 
NERRS,ioos:station:NOAA.NERRS:gndpcwq:1,2013-10-04T15:00:00Z,30.3486,-88.4185,0.0,20.5,1111122 
NERRS,ioos:station:NOAA.NERRS:gndpcwq:1,2013-10-04T16:00:00Z,30.3486,-88.4185,0.0,20.5,1111122 
NERRS,ioos:station:NOAA.NERRS:gndpcwq:1,2013-10-04T17:00:00Z,30.3486,-88.4185,0.0,20.4,1111122 
NERRS,ioos:station:NOAA.NERRS:gndpcwq:1,2013-10-04T18:00:00Z,30.3486,-88.4185,0.0,20.3,1111122 
NERRS,ioos:station:NOAA.NERRS:gndpcwq:1,2013-10-04T19:00:00Z,30.3486,-88.4185,0.0,20.3,1111122 
NERRS,ioos:station:NOAA.NERRS:gndpcwq:1,2013-10-04T20:00:00Z,30.3486,-88.4185,0.0,20.1,1111122 
NERRS,ioos:station:NOAA.NERRS:gndpcwq:1,2013-10-04T21:00:00Z,30.3486,-88.4185,0.0,20.0,1111122 
NERRS,ioos:station:NOAA.NERRS:gndpcwq:1,2013-10-04T22:00:00Z,30.3486,-88.4185,0.0,19.9,1111122 
NERRS,ioos:station:NOAA.NERRS:gndpcwq:1,2013-10-04T23:00:00Z,30.3486,-88.4185,0.0,19.8,1111122 
NERRS,ioos:station:NOAA.NERRS:gndpcwq:1,2013-10-05T00:00:00Z,30.3486,-88.4185,0.0,19.9,1111122 
NERRS,ioos:station:NOAA.NERRS:gndpcwq:1,2013-10-05T01:00:00Z,30.3486,-88.4185,0.0,19.9,1111122 
NERRS,ioos:station:NOAA.NERRS:gndpcwq:1,2013-10-05T02:00:00Z,30.3486,-88.4185,0.0,19.9,1111122 
NERRS,ioos:station:NOAA.NERRS:gndpcwq:1,2013-10-05T03:00:00Z,30.3486,-88.4185,0.0,19.8,1111122 
NERRS,ioos:station:NOAA.NERRS:gndpcwq:1,2013-10-05T04:00:00Z,30.3486,-88.4185,0.0,19.7,1111122 
NERRS,ioos:station:NOAA.NERRS:gndpcwq:1,2013-10-05T05:00:00Z,30.3486,-88.4185,0.0,19.4,1111122 
NERRS,ioos:station:NOAA.NERRS:gndpcwq:1,2013-10-05T06:00:00Z,30.3486,-88.4185,0.0,19.2,1111122 
NERRS,ioos:station:NOAA.NERRS:gndpcwq:1,2013-10-05T07:00:00Z,30.3486,-88.4185,0.0,19.2,1111122 
NERRS,ioos:station:NOAA.NERRS:gndpcwq:1,2013-10-05T08:00:00Z,30.3486,-88.4185,0.0,19.3,1111122 
NERRS,ioos:station:NOAA.NERRS:gndpcwq:1,2013-10-05T09:00:00Z,30.3486,-88.4185,0.0,19.3,1111122 
NERRS,ioos:station:NOAA.NERRS:gndpcwq:1,2013-10-05T10:00:00Z,30.3486,-88.4185,0.0,19.3,1111122 
NERRS,ioos:station:NOAA.NERRS:gndpcwq:1,2013-10-05T11:00:00Z,30.3486,-88.4185,0.0,19.3,1111122 
NERRS,ioos:station:NOAA.NERRS:gndpcwq:1,2013-10-05T12:00:00Z,30.3486,-88.4185,0.0,19.2,1111122 
NERRS,ioos:station:NOAA.NERRS:gndpcwq:1,2013-10-05T13:00:00Z,30.3486,-88.4185,0.0,19.2,1111122 
NERRS,ioos:station:NOAA.NERRS:gndpcwq:1,2013-10-05T16:00:00Z,30.3486,-88.4185,0.0,19.2,1111122 
NERRS,ioos:station:NOAA.NERRS:gndpcwq:1,2013-10-05T17:00:00Z,30.3486,-88.4185,0.0,19.1,1111122 
NERRS,ioos:station:NOAA.NERRS:gndpcwq:1,2013-10-05T18:00:00Z,30.3486,-88.4185,0.0,19.1,1111122 
NERRS,ioos:station:NOAA.NERRS:gndpcwq:1,2013-10-05T19:00:00Z,30.3486,-88.4185,0.0,19.1,1111122 
NERRS,ioos:station:NOAA.NERRS:gndpcwq:1,2013-10-05T20:00:00Z,30.3486,-88.4185,0.0,19.2,1111122 
NERRS,ioos:station:NOAA.NERRS:gndpcwq:1,2013-10-05T21:00:00Z,30.3486,-88.4185,0.0,19.4,1111122 
NERRS,ioos:station:NOAA.NERRS:gndpcwq:1,2013-10-05T22:00:00Z,30.3486,-88.4185,0.0,19.3,1111122 
NERRS,ioos:station:NOAA.NERRS:gndpcwq:1,2013-10-05T23:00:00Z,30.3486,-88.4185,0.0,19.5,1111122 
NERRS,ioos:station:NOAA.NERRS:gndpcwq:1,2013-10-06T00:00:00Z,30.3486,-88.4185,0.0,19.6,1111122 
NERRS,ioos:station:NOAA.NERRS:gndpcwq:1,2013-10-06T01:00:00Z,30.3486,-88.4185,0.0,19.6,1111122 
NERRS,ioos:station:NOAA.NERRS:gndpcwq:1,2013-10-06T02:00:00Z,30.3486,-88.4185,0.0,19.7,1111122 
NERRS,ioos:station:NOAA.NERRS:gndpcwq:1,2013-10-06T03:00:00Z,30.3486,-88.4185,0.0,19.7,1111122 
NERRS,ioos:station:NOAA.NERRS:gndpcwq:1,2013-10-06T04:00:00Z,30.3486,-88.4185,0.0,19.8,1111122 
NERRS,ioos:station:NOAA.NERRS:gndpcwq:1,2013-10-06T05:00:00Z,30.3486,-88.4185,0.0,19.8,1111122 
NERRS,ioos:station:NOAA.NERRS:gndpcwq:1,2013-10-06T06:00:00Z,30.3486,-88.4185,0.0,19.6,1111122 
NERRS,ioos:station:NOAA.NERRS:gndpcwq:1,2013-10-06T07:00:00Z,30.3486,-88.4185,0.0,19.4,1111122 
NERRS,ioos:station:NOAA.NERRS:gndpcwq:1,2013-10-06T08:00:00Z,30.3486,-88.4185,0.0,19.4,1111122 
NERRS,ioos:station:NOAA.NERRS:gndpcwq:1,2013-10-06T09:00:00Z,30.3486,-88.4185,0.0,19.4,1111122 
NERRS,ioos:station:NOAA.NERRS:gndpcwq:1,2013-10-06T10:00:00Z,30.3486,-88.4185,0.0,19.1,1111122 
NERRS,ioos:station:NOAA.NERRS:gndpcwq:1,2013-10-06T11:00:00Z,30.3486,-88.4185,0.0,19.1,1111122 
NERRS,ioos:station:NOAA.NERRS:gndpcwq:1,2013-10-06T12:00:00Z,30.3486,-88.4185,0.0,19.1,1111122 
NERRS,ioos:station:NOAA.NERRS:gndpcwq:1,2013-10-06T13:00:00Z,30.3486,-88.4185,0.0,19.1,1111122 
NERRS,ioos:station:NOAA.NERRS:gndpcwq:1,2013-10-06T14:00:00Z,30.3486,-88.4185,0.0,19.3,1111122 
NERRS,ioos:station:NOAA.NERRS:gndpcwq:1,2013-10-06T15:00:00Z,30.3486,-88.4185,0.0,19.2,1111122 
NERRS,ioos:station:NOAA.NERRS:gndpcwq:1,2013-10-06T16:00:00Z,30.3486,-88.4185,0.0,19.3,1111122 
NERRS,ioos:station:NOAA.NERRS:gndpcwq:1,2013-10-06T17:00:00Z,30.3486,-88.4185,0.0,18.9,1111122 
NERRS,ioos:station:NOAA.NERRS:gndpcwq:1,2013-10-06T18:00:00Z,30.3486,-88.4185,0.0,18.7,1111122 
NERRS,ioos:station:NOAA.NERRS:gndpcwq:1,2013-10-06T19:00:00Z,30.3486,-88.4185,0.0,18.8,1111122 
NERRS,ioos:station:NOAA.NERRS:gndpcwq:1,2013-10-06T20:00:00Z,30.3486,-88.4185,0.0,18.8,1111122 
NERRS,ioos:station:NOAA.NERRS:gndpcwq:1,2013-10-06T21:00:00Z,30.3486,-88.4185,0.0,18.9,1111122 
NERRS,ioos:station:NOAA.NERRS:gndpcwq:1,2013-10-06T22:00:00Z,30.3486,-88.4185,0.0,18.7,1111122 
NERRS,ioos:station:NOAA.NERRS:gndpcwq:1,2013-10-06T23:00:00Z,30.3486,-88.4185,0.0,18.7,1111122 
NERRS,ioos:station:NOAA.NERRS:gndpcwq:1,2013-10-07T00:00:00Z,30.3486,-88.4185,0.0,18.6,1111122 
NERRS,ioos:station:NOAA.NERRS:gndpcwq:1,2013-10-07T01:00:00Z,30.3486,-88.4185,0.0,18.5,1111122 
NERRS,ioos:station:NOAA.NERRS:gndpcwq:1,2013-10-07T02:00:00Z,30.3486,-88.4185,0.0,18.3,1111122 
NERRS,ioos:station:NOAA.NERRS:gndpcwq:1,2013-10-07T03:00:00Z,30.3486,-88.4185,0.0,18.4,1111122 
NERRS,ioos:station:NOAA.NERRS:gndpcwq:1,2013-10-07T04:00:00Z,30.3486,-88.4185,0.0,18.3,1111122 
NERRS,ioos:station:NOAA.NERRS:gndpcwq:1,2013-10-07T05:00:00Z,30.3486,-88.4185,0.0,18.3,1111122 
NERRS,ioos:station:NOAA.NERRS:gndpcwq:1,2013-10-07T06:00:00Z,30.3486,-88.4185,0.0,18.3,1111122 
NERRS,ioos:station:NOAA.NERRS:gndpcwq:1,2013-10-07T07:00:00Z,30.3486,-88.4185,0.0,18.2,1111122 
NERRS,ioos:station:NOAA.NERRS:gndpcwq:1,2013-10-07T08:00:00Z,30.3486,-88.4185,0.0,18.4,1111122 
NERRS,ioos:station:NOAA.NERRS:gndpcwq:1,2013-10-07T09:00:00Z,30.3486,-88.4185,0.0,18.4,1111122 
NERRS,ioos:station:NOAA.NERRS:gndpcwq:1,2013-10-07T10:00:00Z,30.3486,-88.4185,0.0,18.5,1111122 
NERRS,ioos:station:NOAA.NERRS:gndpcwq:1,2013-10-07T11:00:00Z,30.3486,-88.4185,0.0,18.4,1111122 
NERRS,ioos:station:NOAA.NERRS:gndpcwq:1,2013-10-07T12:00:00Z,30.3486,-88.4185,0.0,18.5,1111122 
NERRS,ioos:station:NOAA.NERRS:gndpcwq:1,2013-10-07T13:00:00Z,30.3486,-88.4185,0.0,18.6,1111122 
NERRS,ioos:station:NOAA.NERRS:gndpcwq:1,2013-10-07T14:00:00Z,30.3486,-88.4185,0.0,18.6,1111122 
NERRS,ioos:station:NOAA.NERRS:gndpcwq:1,2013-10-07T15:00:00Z,30.3486,-88.4185,0.0,18.6,1111122 
NERRS,ioos:station:NOAA.NERRS:gndpcwq:1,2013-10-07T16:00:00Z,30.3486,-88.4185,0.0,18.6,1111122 
NERRS,ioos:station:NOAA.NERRS:gndpcwq:1,2013-10-07T18:00:00Z,30.3486,-88.4185,0.0,18.6,1111122 
NERRS,ioos:station:NOAA.NERRS:gndpcwq:1,2013-10-07T20:00:00Z,30.3486,-88.4185,0.0,18.5,1111122 
NERRS,ioos:station:NOAA.NERRS:gndpcwq:1,2013-10-07T21:00:00Z,30.3486,-88.4185,0.0,18.6,1111122 
NERRS,ioos:station:NOAA.NERRS:gndpcwq:1,2013-10-07T22:00:00Z,30.3486,-88.4185,0.0,18.7,1111122 
NERRS,ioos:station:NOAA.NERRS:gndpcwq:1,2013-10-07T23:00:00Z,30.3486,-88.4185,0.0,18.6,1111122 
NERRS,ioos:station:NOAA.NERRS:gndpcwq:1,2013-10-08T00:00:00Z,30.3486,-88.4185,0.0,18.8,1111122 
NERRS,ioos:station:NOAA.NERRS:gndpcwq:1,2013-10-08T01:00:00Z,30.3486,-88.4185,0.0,18.8,1111122 
NERRS,ioos:station:NOAA.NERRS:gndpcwq:1,2013-10-08T02:00:00Z,30.3486,-88.4185,0.0,19.0,1111122 
NERRS,ioos:station:NOAA.NERRS:gndpcwq:1,2013-10-08T03:00:00Z,30.3486,-88.4185,0.0,19.2,1111122 
NERRS,ioos:station:NOAA.NERRS:gndpcwq:1,2013-10-08T04:00:00Z,30.3486,-88.4185,0.0,19.4,1111122 
NERRS,ioos:station:NOAA.NERRS:gndpcwq:1,2013-10-08T05:00:00Z,30.3486,-88.4185,0.0,22.0,1111122 
NERRS,ioos:station:NOAA.NERRS:gndpcwq:1,2013-10-08T06:00:00Z,30.3486,-88.4185,0.0,22.1,1111122 
NERRS,ioos:station:NOAA.NERRS:gndpcwq:1,2013-10-08T07:00:00Z,30.3486,-88.4185,0.0,21.7,1111122 
NERRS,ioos:station:NOAA.NERRS:gndpcwq:1,2013-10-08T08:00:00Z,30.3486,-88.4185,0.0,20.9,1111122 
NERRS,ioos:station:NOAA.NERRS:gndpcwq:1,2013-10-08T09:00:00Z,30.3486,-88.4185,0.0,20.7,1111122 
NERRS,ioos:station:NOAA.NERRS:gndpcwq:1,2013-10-08T11:00:00Z,30.3486,-88.4185,0.0,19.3,1111122 
NERRS,ioos:station:NOAA.NERRS:gndpcwq:1,2013-10-08T12:00:00Z,30.3486,-88.4185,0.0,19.1,1111122 
NERRS,ioos:station:NOAA.NERRS:gndpcwq:1,2013-10-08T13:00:00Z,30.3486,-88.4185,0.0,19.2,1111122 
NERRS,ioos:station:NOAA.NERRS:gndpcwq:1,2013-10-08T14:00:00Z,30.3486,-88.4185,0.0,19.3,1111122 
NERRS,ioos:station:NOAA.NERRS:gndpcwq:1,2013-10-08T15:00:00Z,30.3486,-88.4185,0.0,19.8,1111122 
NERRS,ioos:station:NOAA.NERRS:gndpcwq:1,2013-10-08T16:00:00Z,30.3486,-88.4185,0.0,22.4,1111122 
NERRS,ioos:station:NOAA.NERRS:gndpcwq:1,2013-10-08T17:00:00Z,30.3486,-88.4185,0.0,22.5,1111122 
NERRS,ioos:station:NOAA.NERRS:gndpcwq:1,2013-10-08T18:00:00Z,30.3486,-88.4185,0.0,22.6,1111122 
NERRS,ioos:station:NOAA.NERRS:gndpcwq:1,2013-10-08T19:00:00Z,30.3486,-88.4185,0.0,22.8,1111122 
NERRS,ioos:station:NOAA.NERRS:gndpcwq:1,2013-10-08T20:00:00Z,30.3486,-88.4185,0.0,22.8,1111122 
NERRS,ioos:station:NOAA.NERRS:gndpcwq:1,2013-10-08T21:00:00Z,30.3486,-88.4185,0.0,22.7,1111122 
NERRS,ioos:station:NOAA.NERRS:gndpcwq:1,2013-10-08T22:00:00Z,30.3486,-88.4185,0.0,22.6,1111122 
NERRS,ioos:station:NOAA.NERRS:gndpcwq:1,2013-10-08T23:00:00Z,30.3486,-88.4185,0.0,22.5,1111122 
NERRS,ioos:station:NOAA.NERRS:gndpcwq:1,2013-10-09T00:00:00Z,30.3486,-88.4185,0.0,22.7,1111122 
NERRS,ioos:station:NOAA.NERRS:gndpcwq:1,2013-10-09T01:00:00Z,30.3486,-88.4185,0.0,23.0,1111122 
NERRS,ioos:station:NOAA.NERRS:gndpcwq:1,2013-10-09T02:00:00Z,30.3486,-88.4185,0.0,23.3,1111122 
NERRS,ioos:station:NOAA.NERRS:gndpcwq:1,2013-10-09T03:00:00Z,30.3486,-88.4185,0.0,23.4,1111122 
NERRS,ioos:station:NOAA.NERRS:gndpcwq:1,2013-10-09T04:00:00Z,30.3486,-88.4185,0.0,24.4,1111122 
NERRS,ioos:station:NOAA.NERRS:gndpcwq:1,2013-10-09T05:00:00Z,30.3486,-88.4185,0.0,25.0,1111122 
NERRS,ioos:station:NOAA.NERRS:gndpcwq:1,2013-10-09T06:00:00Z,30.3486,-88.4185,0.0,25.4,1111122 
NERRS,ioos:station:NOAA.NERRS:gndpcwq:1,2013-10-09T07:00:00Z,30.3486,-88.4185,0.0,26.3,1111122 
NERRS,ioos:station:NOAA.NERRS:gndpcwq:1,2013-10-09T08:00:00Z,30.3486,-88.4185,0.0,26.7,1111122 
NERRS,ioos:station:NOAA.NERRS:gndpcwq:1,2013-10-09T09:00:00Z,30.3486,-88.4185,0.0,26.6,1111122 
NERRS,ioos:station:NOAA.NERRS:gndpcwq:1,2013-10-09T10:00:00Z,30.3486,-88.4185,0.0,26.4,1111122 
NERRS,ioos:station:NOAA.NERRS:gndpcwq:1,2013-10-09T11:00:00Z,30.3486,-88.4185,0.0,26.4,1111122 
NERRS,ioos:station:NOAA.NERRS:gndpcwq:1,2013-10-09T12:00:00Z,30.3486,-88.4185,0.0,26.6,1111122 
NERRS,ioos:station:NOAA.NERRS:gndpcwq:1,2013-10-09T13:00:00Z,30.3486,-88.4185,0.0,26.7,1111122 
NERRS,ioos:station:NOAA.NERRS:gndpcwq:1,2013-10-09T14:00:00Z,30.3486,-88.4185,0.0,27.0,1111122 
NERRS,ioos:station:NOAA.NERRS:gndpcwq:1,2013-10-09T15:00:00Z,30.3486,-88.4185,0.0,27.1,1111122 
NERRS,ioos:station:NOAA.NERRS:gndpcwq:1,2013-10-09T16:00:00Z,30.3486,-88.4185,0.0,27.1,1111122 
NERRS,ioos:station:NOAA.NERRS:gndpcwq:1,2013-10-09T17:00:00Z,30.3486,-88.4185,0.0,27.1,1111122 
NERRS,ioos:station:NOAA.NERRS:gndpcwq:1,2013-10-09T18:00:00Z,30.3486,-88.4185,0.0,26.9,1111122 
NERRS,ioos:station:NOAA.NERRS:gndpcwq:1,2013-10-09T19:00:00Z,30.3486,-88.4185,0.0,26.9,1111122 
NERRS,ioos:station:NOAA.NERRS:gndpcwq:1,2013-10-09T20:00:00Z,30.3486,-88.4185,0.0,27.3,1111122 
NERRS,ioos:station:NOAA.NERRS:gndpcwq:1,2013-10-09T21:00:00Z,30.3486,-88.4185,0.0,27.4,1111122 
NERRS,ioos:station:NOAA.NERRS:gndpcwq:1,2013-10-09T22:00:00Z,30.3486,-88.4185,0.0,27.4,1111122 
NERRS,ioos:station:NOAA.NERRS:gndpcwq:1,2013-10-09T23:00:00Z,30.3486,-88.4185,0.0,27.2,1111122 
NERRS,ioos:station:NOAA.NERRS:gndpcwq:1,2013-10-10T00:00:00Z,30.3486,-88.4185,0.0,26.8,1111122 
NERRS,ioos:station:NOAA.NERRS:gndpcwq:1,2013-10-10T01:00:00Z,30.3486,-88.4185,0.0,26.4,1111122 
NERRS,ioos:station:NOAA.NERRS:gndpcwq:1,2013-10-10T02:00:00Z,30.3486,-88.4185,0.0,26.2,1111122 
NERRS,ioos:station:NOAA.NERRS:gndpcwq:1,2013-10-10T03:00:00Z,30.3486,-88.4185,0.0,26.0,1111122 
NERRS,ioos:station:NOAA.NERRS:gndpcwq:1,2013-10-10T04:00:00Z,30.3486,-88.4185,0.0,25.3,1111122 
NERRS,ioos:station:NOAA.NERRS:gndpcwq:1,2013-10-10T05:00:00Z,30.3486,-88.4185,0.0,25.4,1111122 
NERRS,ioos:station:NOAA.NERRS:gndpcwq:1,2013-10-10T06:00:00Z,30.3486,-88.4185,0.0,25.2,1111122 
NERRS,ioos:station:NOAA.NERRS:gndpcwq:1,2013-10-10T07:00:00Z,30.3486,-88.4185,0.0,24.8,1111122 
NERRS,ioos:station:NOAA.NERRS:gndpcwq:1,2013-10-10T08:00:00Z,30.3486,-88.4185,0.0,24.5,1111122 
NERRS,ioos:station:NOAA.NERRS:gndpcwq:1,2013-10-10T09:00:00Z,30.3486,-88.4185,0.0,24.5,1111122 
NERRS,ioos:station:NOAA.NERRS:gndpcwq:1,2013-10-10T10:00:00Z,30.3486,-88.4185,0.0,24.5,1111122 
NERRS,ioos:station:NOAA.NERRS:gndpcwq:1,2013-10-10T11:00:00Z,30.3486,-88.4185,0.0,24.6,1111122 
NERRS,ioos:station:NOAA.NERRS:gndpcwq:1,2013-10-10T12:00:00Z,30.3486,-88.4185,0.0,24.4,1111122 
NERRS,ioos:station:NOAA.NERRS:gndpcwq:1,2013-10-10T13:00:00Z,30.3486,-88.4185,0.0,23.8,1111122 
NERRS,ioos:station:NOAA.NERRS:gndpcwq:1,2013-10-10T14:00:00Z,30.3486,-88.4185,0.0,24.3,1111122 
NERRS,ioos:station:NOAA.NERRS:gndpcwq:1,2013-10-10T15:00:00Z,30.3486,-88.4185,0.0,24.3,1111122 
NERRS,ioos:station:NOAA.NERRS:gndpcwq:1,2013-10-10T16:00:00Z,30.3486,-88.4185,0.0,24.3,1111122 
NERRS,ioos:station:NOAA.NERRS:gndpcwq:1,2013-10-10T17:00:00Z,30.3486,-88.4185,0.0,24.5,1111122 
NERRS,ioos:station:NOAA.NERRS:gndpcwq:1,2013-10-10T18:00:00Z,30.3486,-88.4185,0.0,24.9,1111122 
NERRS,ioos:station:NOAA.NERRS:gndpcwq:1,2013-10-10T19:00:00Z,30.3486,-88.4185,0.0,25.2,1111122 
NERRS,ioos:station:NOAA.NERRS:gndpcwq:1,2013-10-10T20:00:00Z,30.3486,-88.4185,0.0,25.4,1111122 
NERRS,ioos:station:NOAA.NERRS:gndpcwq:1,2013-10-10T21:00:00Z,30.3486,-88.4185,0.0,25.2,1111122 
NERRS,ioos:station:NOAA.NERRS:gndpcwq:1,2013-10-10T23:00:00Z,30.3486,-88.4185,0.0,25.0,1111122 
NERRS,ioos:station:NOAA.NERRS:gndpcwq:1,2013-10-11T00:00:00Z,30.3486,-88.4185,0.0,25.0,1111122 
NERRS,ioos:station:NOAA.NERRS:gndpcwq:1,2013-10-11T01:00:00Z,30.3486,-88.4185,0.0,25.1,1111122 
NERRS,ioos:station:NOAA.NERRS:gndpcwq:1,2013-10-11T02:00:00Z,30.3486,-88.4185,0.0,25.2,1111122 
NERRS,ioos:station:NOAA.NERRS:gndpcwq:1,2013-10-11T03:00:00Z,30.3486,-88.4185,0.0,25.2,1111122 
NERRS,ioos:station:NOAA.NERRS:gndpcwq:1,2013-10-11T04:00:00Z,30.3486,-88.4185,0.0,25.2,1111122 
NERRS,ioos:station:NOAA.NERRS:gndpcwq:1,2013-10-11T05:00:00Z,30.3486,-88.4185,0.0,25.4,1111122 
NERRS,ioos:station:NOAA.NERRS:gndpcwq:1,2013-10-11T06:00:00Z,30.3486,-88.4185,0.0,25.4,1111122 
NERRS,ioos:station:NOAA.NERRS:gndpcwq:1,2013-10-11T07:00:00Z,30.3486,-88.4185,0.0,25.6,1111122 
NERRS,ioos:station:NOAA.NERRS:gndpcwq:1,2013-10-11T08:00:00Z,30.3486,-88.4185,0.0,25.6,1111122 
NERRS,ioos:station:NOAA.NERRS:gndpcwq:1,2013-10-11T09:00:00Z,30.3486,-88.4185,0.0,25.5,1111122 
NERRS,ioos:station:NOAA.NERRS:gndpcwq:1,2013-10-11T10:00:00Z,30.3486,-88.4185,0.0,25.5,1111122 
NERRS,ioos:station:NOAA.NERRS:gndpcwq:1,2013-10-11T11:00:00Z,30.3486,-88.4185,0.0,25.5,1111122 
NERRS,ioos:station:NOAA.NERRS:gndpcwq:1,2013-10-11T12:00:00Z,30.3486,-88.4185,0.0,25.5,1111122 
NERRS,ioos:station:NOAA.NERRS:gndpcwq:1,2013-10-11T13:00:00Z,30.3486,-88.4185,0.0,25.5,1111122 
NERRS,ioos:station:NOAA.NERRS:gndpcwq:1,2013-10-11T14:00:00Z,30.3486,-88.4185,0.0,25.3,1111122 